�搅�E���B���j�^�v������
Date,Time,�搅(cps),���B(cps),���J
2023/09/06,00:00,7.4,5.2,��
2023/09/06,00:10,7.3,5.1,�L
2023/09/06,00:20,7.4,5.0,�L
2023/09/06,00:30,7.7,5.0,�L
2023/09/06,00:40,7.7,5.1,�L
2023/09/06,00:50,7.7,5.3,��
2023/09/06,01:00,7.6,5.1,��
2023/09/06,01:10,7.7,5.1,��
2023/09/06,01:20,7.6,5.1,��
2023/09/06,01:30,7.6,5.2,��
2023/09/06,01:40,7.6,5.3,��
2023/09/06,01:50,7.5,5.2,��
2023/09/06,02:00,7.6,5.1,��
2023/09/06,02:10,7.8,5.3,��
2023/09/06,02:20,7.5,5.2,��
2023/09/06,02:30,7.3,5.1,��
2023/09/06,02:40,7.4,5.2,��
2023/09/06,02:50,7.5,5.1,�L
2023/09/06,03:00,7.6,5.1,��
2023/09/06,03:10,7.5,5.2,��
2023/09/06,03:20,7.4,5.3,�L
2023/09/06,03:30,7.5,5.0,�L
2023/09/06,03:40,7.6,5.2,�L
2023/09/06,03:50,7.2,5.1,�L
2023/09/06,04:00,7.3,5.2,�L
2023/09/06,04:10,7.4,5.2,�L
2023/09/06,04:20,7.5,5.3,�L
2023/09/06,04:30,7.6,5.2,�L
2023/09/06,04:40,7.5,5.2,�L
2023/09/06,04:50,7.4,5.1,�L
2023/09/06,05:00,7.3,5.1,�L
2023/09/06,05:10,7.4,5.2,�L
2023/09/06,05:20,7.5,5.1,�L
2023/09/06,05:30,7.5,5.4,�L
2023/09/06,05:40,7.4,5.2,�L
2023/09/06,05:50,7.4,5.2,�L
2023/09/06,06:00,7.4,5.2,�L
2023/09/06,06:10,7.4,5.0,�L
2023/09/06,06:20,7.3,5.1,�L
2023/09/06,06:30,7.3,5.1,��
2023/09/06,06:40,7.4,5.3,��
2023/09/06,06:50,7.4,5.3,��
2023/09/06,07:00,7.4,5.1,��
2023/09/06,07:10,7.3,5.2,��
2023/09/06,07:20,7.4,5.2,��
2023/09/06,07:30,7.4,5.0,��
2023/09/06,07:40,7.3,5.2,��
2023/09/06,07:50,7.4,5.3,��
2023/09/06,08:00,7.2,5.2,��
2023/09/06,08:10,7.2,5.2,��
2023/09/06,08:20,7.2,5.2,��
2023/09/06,08:30,7.1,5.0,�L
2023/09/06,08:40,7.3,5.0,�L
2023/09/06,08:50,7.2,5.1,��
2023/09/06,09:00,7.1,5.1,�L
2023/09/06,09:10,7.3,5.2,��
2023/09/06,09:20,7.2,5.1,�L
2023/09/06,09:30,7.1,4.9,�L
2023/09/06,09:40,7.1,5.0,�L
2023/09/06,09:50,7.1,5.1,�L
2023/09/06,10:00,7.2,5.1,�L
2023/09/06,10:10,7.3,5.1,�L
2023/09/06,10:20,7.3,4.9,�L
2023/09/06,10:30,7.3,5.0,�L
2023/09/06,10:40,7.0,5.2,�L
2023/09/06,10:50,7.1,5.1,�L
2023/09/06,11:00,7.1,5.0,�L
2023/09/06,11:10,7.2,5.0,�L
2023/09/06,11:20,7.1,5.2,�L
2023/09/06,11:30,7.2,5.3,�L
2023/09/06,11:40,7.2,5.1,�L
2023/09/06,11:50,7.2,5.2,�L
2023/09/06,12:00,7.4,5.5,�L
2023/09/06,12:10,7.5,5.5,�L
2023/09/06,12:20,7.5,5.7,�L
2023/09/06,12:30,7.5,5.6,�L
2023/09/06,12:40,7.8,5.6,�L
2023/09/06,12:50,8.2,5.4,�L
2023/09/06,13:00,8.3,5.6,�L
2023/09/06,13:10,8.1,5.7,�L
2023/09/06,13:20,8.3,5.8,�L
2023/09/06,13:30,8.3,5.7,�L
2023/09/06,13:40,8.5,5.5,�L
2023/09/06,13:50,8.5,5.6,�L
2023/09/06,14:00,8.4,5.6,�L
2023/09/06,14:10,8.3,5.6,�L
2023/09/06,14:20,8.2,5.7,�L
2023/09/06,14:30,8.1,5.5,�L
2023/09/06,14:40,8.2,5.5,�L
2023/09/06,14:50,8.4,5.4,�L
2023/09/06,15:00,8.2,5.5,�L
2023/09/06,15:10,8.0,5.4,�L
2023/09/06,15:20,8.5,5.4,�L
2023/09/06,15:30,8.7,5.7,�L
2023/09/06,15:40,8.7,5.5,�L
2023/09/06,15:50,8.6,5.7,��
2023/09/06,16:00,8.5,5.6,�L
2023/09/06,16:10,8.4,5.7,��
2023/09/06,16:20,8.2,5.5,�L
2023/09/06,16:30,8.0,5.3,�L
2023/09/06,16:40,7.8,5.4,�L
2023/09/06,16:50,7.9,5.3,��
2023/09/06,17:00,7.7,5.2,��
2023/09/06,17:10,7.6,5.3,��
2023/09/06,17:20,7.6,5.3,��
2023/09/06,17:30,7.4,5.1,�L
2023/09/06,17:40,7.4,5.1,�L
2023/09/06,17:50,7.5,5.2,�L
2023/09/06,18:00,7.5,5.1,�L
2023/09/06,18:10,7.3,5.1,�L
2023/09/06,18:20,7.3,5.1,�L
2023/09/06,18:30,7.2,5.1,�L
2023/09/06,18:40,7.3,5.2,��
2023/09/06,18:50,7.2,5.2,��
2023/09/06,19:00,7.3,5.1,��
2023/09/06,19:10,7.3,5.0,��
2023/09/06,19:20,7.1,5.0,��
2023/09/06,19:30,7.0,5.0,�L
2023/09/06,19:40,7.0,5.2,�L
2023/09/06,19:50,7.3,5.2,��
2023/09/06,20:00,7.1,5.1,��
2023/09/06,20:10,7.0,5.1,��
2023/09/06,20:20,7.0,5.2,�L
2023/09/06,20:30,7.1,5.0,��
2023/09/06,20:40,7.0,5.0,��
2023/09/06,20:50,7.1,5.1,�L
2023/09/06,21:00,7.0,5.2,�L
2023/09/06,21:10,7.0,5.2,�L
2023/09/06,21:20,7.0,5.1,��
2023/09/06,21:30,7.1,5.2,��
2023/09/06,21:40,7.1,5.1,��
2023/09/06,21:50,7.1,5.0,��
2023/09/06,22:00,7.1,5.2,��
2023/09/06,22:10,7.0,5.2,��
2023/09/06,22:20,7.0,5.1,��
2023/09/06,22:30,7.1,5.0,��
2023/09/06,22:40,7.2,5.1,��
2023/09/06,22:50,7.3,5.1,��
2023/09/06,23:00,7.3,4.9,��
2023/09/06,23:10,7.2,5.1,��
2023/09/06,23:20,7.1,5.2,��
2023/09/06,23:30,7.1,5.2,��
2023/09/06,23:40,7.1,5.1,��
2023/09/06,23:50,7.2,5.0,��
